Location: Tel Aviv
(32.0670°N, 34.7670°E)
Time: 15:48:55
(UTC+03:00)

ISS - Pass Details

Date: 26 May 2025
Orbit: 415 x 417 km, 51.6° (Epoch: 15 June)

Event Time Altitude Azimuth Distance (km) Brightness Sun altitude
Rises 20:59:04 0° 326° (NNW) 2,355 1.5 -15.3°
Reaches altitude 10° 21:01:26 10° 342° (NNW) 1,489 -0.1 -15.7°
Maximum altitude 21:04:11 23° 37° (NE) 926 -2.0 -16.1°
Enters shadow 21:05:16 20° 66° (ENE) 1,031 -2.1 -16.3°
